Location: ????
(30.1475°N, 31.1342°E)
Time: 21:50:21
(UTC+00:00)

ASTRO E2 - Visible Passes

Search period start: 30 March 2023 00:00
Search period end: 09 April 2023 00:00
Orbit: 483 x 489 km, 31.4° (Epoch: 29 March)

Date Brightness Start Highest point End Pass type
(mag) Time Alt. Az. Time Alt. Az. Time Alt. Az.
30 Mar 4.9 02:49:18 10° SSW 02:51:43 16° SSE 02:54:08 10° ESE visible
31 Mar 4.8 02:22:41 14° S 02:24:12 17° SSE 02:26:40 10° ESE visible
01 Apr 4.7 01:56:47 17° SSE 01:56:47 17° SSE 01:59:11 10° ESE visible
02 Apr 5.3 01:30:47 14° ESE 01:30:47 14° ESE 01:31:39 10° ESE visible
02 Apr 2.8 03:05:02 12° WSW 03:08:32 62° SSE 03:12:16 10° E visible
03 Apr 2.7 02:38:55 26° WSW 02:40:53 63° SSE 02:44:39 10° E visible
04 Apr 2.6 02:12:44 56° SSW 02:13:13 64° SSE 02:16:59 10° E visible
05 Apr 3.5 01:46:27 45° ESE 01:46:27 45° ESE 01:49:17 10° E visible
06 Apr 5.0 01:20:08 21° E 01:20:08 21° E 01:21:33 10° E visible
06 Apr 2.7 02:54:23 14° W 02:57:36 72° N 03:01:24 10° E visible
07 Apr 2.6 02:28:01 29° W 02:29:49 71° N 02:33:36 10° E visible
08 Apr 2.5 02:01:38 65° NW 02:02:00 71° N 02:05:47 10° E visible
